Find KUIPER-00434

NORAD ID: 68938 Int'l Des: 2026-098V Owner: KUIP Country: US Constellation: amazon-leo operational
LEOCIRCULAR

リアルタイム位置

3D地球を読み込み中...

KUIPER-00434について

説明を読み込み中...

次回通過

Passes for default location (London). Set your location on the main map for personalized predictions.

高度履歴

Loading altitude history...

軌道要素

1 68938U 26098V 26125.91668981 .00035112 00000-0 10444-2 0 9990
2 68938 51.8739 271.3842 0007677 355.9992 39.1111 15.34379985 1309
Epoch: May 5, 2026 • Age: 10 hours

現在のステータス

高度 466.4 km
速度 7.64 km/s
衛星直下点 47.98°N, 7.67°W
打ち上げ日 Apr 30, 2026
運用期間 6 days
タイプ internet

技術仕様

分類 Payload
質量 490.00 kg
乾燥質量 490.00 kg
総質量 490.00 kg
長さ 1.80 m
直径 0.70 m
スパン 5.00 m
形状 Box + 2 pan
製造者 KUIP
バスタイプ Kuiper
フェーズステータス In Orbit
所有者/国 KUIP/US

Most Searched